Capitol Logistics 2295


KSDF
Louisville International Airport-Standiford Field
Louisville, Kentucky, US
KMIA
Miami International Airport
Miami, Florida, US

Activity Log

Date Flight Route Aircraft Duration
No Flights Yet

Route Details

Aircraft Information
Primary: Boeing 747-400BCF
Backup: Boeing 767-300BDSF
Date Restrictions
Between:Nov 16, 2019
Dec 31, 2019
Route Data
Distance: 794nm
Sched. Duration: 2h 00m
Avg. Duration: 0h 00m (-201m)
Times Flown: 0
Recm'd Route: FEDRA5 OHAGI ATL HONID BULZI NICKI Q81 ENDEW JUULI SSCOT5
Planned Altitude: 33,000ft
Origin Wx: KSDF 290356Z 20012KT 10SM -RA FEW040 SCT095 BKN120 OVC250 23/18 A2995 RMK AO2 LTG DSNT NW RAB35 SLP137 FRQ LTGIC DSNT NW P0000 T02280183
Dest. Wx: KMIA 290353Z 09009KT 10SM FEW022 BKN250 28/23 A3007 RMK AO2 SLP182 T02780233
Notes: SEASONAL FLIGHT | UPS SURGE OPS CONTRACT

Financial History
Total Freight: 0lbs
Average Load: 0lbs/flt
Fuel Used: 0lbs
Avg. Fuel Used: 0lbs/flt
Fuel Expense: $0
Avg. Fuel Expense: $0
Avg. Fuel Cost: $0/lbs
Total Gross Income: $0
Pilot Pay: $0
Total Expenses: $0
Total Revenue: $0
Average Revenue: $0